Year,Month,Day,Hour,Minute,Value (Times are PST for temperature in C)
2017,07,12,00,00,14.20
2017,07,12,00,01,14.20
2017,07,12,00,02,14.20
2017,07,12,00,03,14.20
2017,07,12,00,04,14.20
2017,07,12,00,05,14.20
2017,07,12,00,06,14.20
2017,07,12,00,07,14.30
2017,07,12,00,08,14.30
2017,07,12,00,09,14.30
2017,07,12,00,10,14.30
2017,07,12,00,11,14.30
2017,07,12,00,12,14.20
2017,07,12,00,13,14.20
2017,07,12,00,14,14.20
2017,07,12,00,15,14.20
2017,07,12,00,16,14.20
2017,07,12,00,17,14.20
2017,07,12,00,18,14.20
2017,07,12,00,19,14.20
2017,07,12,00,20,14.20
2017,07,12,00,21,14.20
2017,07,12,00,22,14.20
2017,07,12,00,23,14.20
2017,07,12,00,24,14.20
2017,07,12,00,25,14.20
2017,07,12,00,26,14.10
2017,07,12,00,27,14.10
2017,07,12,00,28,14.10
2017,07,12,00,29,14.10
2017,07,12,00,30,14.10
2017,07,12,00,31,14.10
2017,07,12,00,32,14.10
2017,07,12,00,33,14.10
2017,07,12,00,34,14.00
2017,07,12,00,35,14.00
2017,07,12,00,36,13.90
2017,07,12,00,37,13.90
2017,07,12,00,38,13.80
2017,07,12,00,39,13.80
2017,07,12,00,40,13.70
2017,07,12,00,41,13.70
2017,07,12,00,42,13.70
2017,07,12,00,43,13.60
2017,07,12,00,44,13.60
2017,07,12,00,45,13.50
2017,07,12,00,46,13.50
2017,07,12,00,47,13.50
2017,07,12,00,48,13.40
2017,07,12,00,49,13.40
2017,07,12,00,50,13.40
2017,07,12,00,51,13.30
2017,07,12,00,52,13.30
2017,07,12,00,53,13.30
2017,07,12,00,54,13.20
2017,07,12,00,55,13.20
2017,07,12,00,56,13.20
2017,07,12,00,57,13.20
2017,07,12,00,58,13.20
2017,07,12,00,59,13.10
2017,07,12,01,00,13.10
2017,07,12,01,01,13.00
2017,07,12,01,02,13.00
2017,07,12,01,03,13.00
2017,07,12,01,04,12.90
2017,07,12,01,05,12.90
2017,07,12,01,06,12.90
2017,07,12,01,07,12.90
2017,07,12,01,08,12.90
2017,07,12,01,09,12.90
2017,07,12,01,10,12.90
2017,07,12,01,11,12.90
2017,07,12,01,12,12.90
2017,07,12,01,13,12.90
2017,07,12,01,14,12.90
2017,07,12,01,15,12.90
2017,07,12,01,16,12.90
2017,07,12,01,17,12.80
2017,07,12,01,18,12.80
2017,07,12,01,19,12.80
2017,07,12,01,20,12.80
2017,07,12,01,21,12.80
2017,07,12,01,22,12.80
2017,07,12,01,23,12.80
2017,07,12,01,24,12.80
2017,07,12,01,25,12.90
2017,07,12,01,26,12.90
2017,07,12,01,27,12.90
2017,07,12,01,28,12.90
2017,07,12,01,29,12.90
2017,07,12,01,30,12.90
2017,07,12,01,31,12.80
2017,07,12,01,32,12.80
2017,07,12,01,33,12.80
2017,07,12,01,34,12.80
2017,07,12,01,35,12.80
2017,07,12,01,36,12.80
2017,07,12,01,37,12.80
2017,07,12,01,38,12.80
2017,07,12,01,39,12.80
2017,07,12,01,40,12.80
2017,07,12,01,41,12.80
2017,07,12,01,42,12.80
2017,07,12,01,43,12.70
2017,07,12,01,44,12.70
2017,07,12,01,45,12.70
2017,07,12,01,46,12.70
2017,07,12,01,47,12.70
2017,07,12,01,48,12.70
2017,07,12,01,49,12.70
2017,07,12,01,50,12.70
2017,07,12,01,51,12.70
2017,07,12,01,52,12.70
2017,07,12,01,53,12.70
2017,07,12,01,54,12.70
2017,07,12,01,55,12.70
2017,07,12,01,56,12.70
2017,07,12,01,57,12.70
2017,07,12,01,58,12.70
2017,07,12,01,59,12.70
2017,07,12,02,00,12.70
2017,07,12,02,01,12.70
2017,07,12,02,02,12.70
2017,07,12,02,03,12.70
2017,07,12,02,04,12.70
2017,07,12,02,05,12.70
2017,07,12,02,06,12.70
2017,07,12,02,07,12.70
2017,07,12,02,08,12.70
2017,07,12,02,09,12.70
2017,07,12,02,10,12.60
2017,07,12,02,11,12.50
2017,07,12,02,12,12.50
2017,07,12,02,13,12.50
2017,07,12,02,14,12.50
2017,07,12,02,15,12.40
2017,07,12,02,16,12.40
2017,07,12,02,17,12.40
2017,07,12,02,18,12.40
2017,07,12,02,19,12.40
2017,07,12,02,20,12.40
2017,07,12,02,21,12.40
2017,07,12,02,22,12.30
2017,07,12,02,23,12.30
2017,07,12,02,24,12.30
2017,07,12,02,25,12.30
2017,07,12,02,26,12.30
2017,07,12,02,27,12.30
2017,07,12,02,28,12.30
2017,07,12,02,29,12.30
2017,07,12,02,30,12.30
2017,07,12,02,31,12.30
2017,07,12,02,32,12.30
2017,07,12,02,33,12.30
2017,07,12,02,34,12.30
2017,07,12,02,35,12.20
2017,07,12,02,36,12.20
2017,07,12,02,37,12.20
2017,07,12,02,38,12.20
2017,07,12,02,39,12.20
2017,07,12,02,40,12.20
2017,07,12,02,41,12.10
2017,07,12,02,42,12.10
2017,07,12,02,43,12.10
2017,07,12,02,44,12.10
2017,07,12,02,45,12.10
2017,07,12,02,46,12.10
2017,07,12,02,47,12.10
2017,07,12,02,48,12.10
2017,07,12,02,49,12.10
2017,07,12,02,50,12.10
2017,07,12,02,51,12.10
2017,07,12,02,52,12.00
2017,07,12,02,53,12.00
2017,07,12,02,54,12.00
2017,07,12,02,55,12.00
2017,07,12,02,56,12.00
2017,07,12,02,57,12.10
2017,07,12,02,58,12.10
2017,07,12,02,59,12.10
2017,07,12,03,00,12.10
2017,07,12,03,01,12.10
2017,07,12,03,02,12.20
2017,07,12,03,03,12.20
2017,07,12,03,04,12.20
2017,07,12,03,05,12.20
2017,07,12,03,06,12.20
2017,07,12,03,07,12.20
2017,07,12,03,08,12.20
2017,07,12,03,09,12.20
2017,07,12,03,10,12.20
2017,07,12,03,11,12.20
2017,07,12,03,12,12.30
2017,07,12,03,13,12.30
2017,07,12,03,14,12.30
2017,07,12,03,15,12.30
2017,07,12,03,16,12.30
2017,07,12,03,17,12.30
2017,07,12,03,18,12.30
2017,07,12,03,19,12.30
2017,07,12,03,20,12.30
2017,07,12,03,21,12.30
2017,07,12,03,22,12.30
2017,07,12,03,23,12.30
2017,07,12,03,24,12.30
2017,07,12,03,25,12.30
2017,07,12,03,26,12.30
2017,07,12,03,27,12.30
2017,07,12,03,28,12.30
2017,07,12,03,29,12.30
2017,07,12,03,30,12.30
2017,07,12,03,31,12.30
2017,07,12,03,32,12.30
2017,07,12,03,33,12.30
2017,07,12,03,34,12.30
2017,07,12,03,35,12.30
2017,07,12,03,36,12.30
2017,07,12,03,37,12.30
2017,07,12,03,38,12.30
2017,07,12,03,39,12.30
2017,07,12,03,40,12.30
2017,07,12,03,41,12.30
2017,07,12,03,42,12.30
2017,07,12,03,43,12.30
2017,07,12,03,44,12.30
2017,07,12,03,45,12.30
2017,07,12,03,46,12.30
2017,07,12,03,47,12.30
2017,07,12,03,48,12.30
2017,07,12,03,49,12.30
2017,07,12,03,50,12.30
2017,07,12,03,51,12.30
2017,07,12,03,52,12.30
2017,07,12,03,53,12.30
2017,07,12,03,54,12.30
2017,07,12,03,55,12.30
2017,07,12,03,56,12.30
2017,07,12,03,57,12.30
2017,07,12,03,58,12.30
2017,07,12,03,59,12.30
2017,07,12,04,00,12.30
2017,07,12,04,01,12.30
2017,07,12,04,02,12.30
2017,07,12,04,03,12.30
2017,07,12,04,04,12.30
2017,07,12,04,05,12.30
2017,07,12,04,06,12.30
2017,07,12,04,07,12.30
2017,07,12,04,08,12.30
2017,07,12,04,09,12.30
2017,07,12,04,10,12.30
2017,07,12,04,11,12.20
2017,07,12,04,12,12.20
2017,07,12,04,13,12.20
2017,07,12,04,14,12.20
2017,07,12,04,15,12.20
2017,07,12,04,16,12.20
2017,07,12,04,17,12.20
2017,07,12,04,18,12.20
2017,07,12,04,19,12.20
2017,07,12,04,20,12.20
2017,07,12,04,21,12.20
2017,07,12,04,22,12.20
2017,07,12,04,23,12.20
2017,07,12,04,24,12.20
2017,07,12,04,25,12.20
2017,07,12,04,26,12.20
2017,07,12,04,27,12.20
2017,07,12,04,28,12.20
2017,07,12,04,29,12.20
2017,07,12,04,30,12.20
2017,07,12,04,31,12.20
2017,07,12,04,32,12.20
2017,07,12,04,33,12.10
2017,07,12,04,34,12.10
2017,07,12,04,35,12.10
2017,07,12,04,36,12.10
2017,07,12,04,37,12.20
2017,07,12,04,38,12.10
2017,07,12,04,39,12.20
2017,07,12,04,40,12.10
2017,07,12,04,41,12.10
2017,07,12,04,42,12.10
2017,07,12,04,43,12.10
2017,07,12,04,44,12.10
2017,07,12,04,45,12.10
2017,07,12,04,46,12.10
2017,07,12,04,47,12.10
2017,07,12,04,48,12.10
2017,07,12,04,49,12.10
2017,07,12,04,50,12.10
2017,07,12,04,51,12.10
2017,07,12,04,52,12.10
2017,07,12,04,53,12.10
2017,07,12,04,54,12.10
2017,07,12,04,55,12.10
2017,07,12,04,56,12.10
2017,07,12,04,57,12.10
2017,07,12,04,58,12.10
2017,07,12,04,59,12.10
2017,07,12,05,00,12.10
2017,07,12,05,01,12.10
2017,07,12,05,02,12.10
2017,07,12,05,03,12.10
2017,07,12,05,04,12.00
2017,07,12,05,05,12.00
2017,07,12,05,06,12.00
2017,07,12,05,07,12.00
2017,07,12,05,08,12.00
2017,07,12,05,09,12.00
2017,07,12,05,10,12.00
2017,07,12,05,11,12.00
2017,07,12,05,12,12.00
2017,07,12,05,13,12.00
2017,07,12,05,14,12.00
2017,07,12,05,15,12.00
2017,07,12,05,16,12.00
2017,07,12,05,17,12.00
2017,07,12,05,18,12.00
2017,07,12,05,19,12.10
2017,07,12,05,20,12.10
2017,07,12,05,21,12.10
2017,07,12,05,22,12.10
2017,07,12,05,23,12.10
2017,07,12,05,24,12.10
2017,07,12,05,25,12.10
2017,07,12,05,26,12.10
2017,07,12,05,27,12.10
2017,07,12,05,28,12.10
2017,07,12,05,29,12.10
2017,07,12,05,30,12.00
2017,07,12,05,31,12.00
2017,07,12,05,32,12.00
2017,07,12,05,33,12.00
2017,07,12,05,34,12.00
2017,07,12,05,35,12.00
2017,07,12,05,36,12.00
2017,07,12,05,37,12.10
2017,07,12,05,38,12.00
2017,07,12,05,39,12.10
2017,07,12,05,40,12.00
2017,07,12,05,41,12.10
2017,07,12,05,42,12.10
2017,07,12,05,43,12.10
2017,07,12,05,44,12.10
2017,07,12,05,45,12.10
2017,07,12,05,46,12.10
2017,07,12,05,47,12.00
2017,07,12,05,48,12.00
2017,07,12,05,49,12.00
2017,07,12,05,50,12.00
2017,07,12,05,51,12.00
2017,07,12,05,52,12.00
2017,07,12,05,53,12.00
2017,07,12,05,54,12.00
2017,07,12,05,55,12.00
2017,07,12,05,56,12.00
2017,07,12,05,57,12.00
2017,07,12,05,58,12.00
2017,07,12,05,59,12.00
2017,07,12,06,00,12.00
2017,07,12,06,01,12.00
2017,07,12,06,02,12.00
2017,07,12,06,03,12.00
2017,07,12,06,04,12.00
2017,07,12,06,05,12.00
2017,07,12,06,06,12.00
2017,07,12,06,07,12.00
2017,07,12,06,08,12.00
2017,07,12,06,09,12.00
2017,07,12,06,10,12.00
2017,07,12,06,11,12.00
2017,07,12,06,12,12.00
2017,07,12,06,13,12.00
2017,07,12,06,14,12.00
2017,07,12,06,15,12.10
2017,07,12,06,16,12.10
2017,07,12,06,17,12.10
2017,07,12,06,18,12.10
2017,07,12,06,19,12.10
2017,07,12,06,20,12.10
2017,07,12,06,21,12.10
2017,07,12,06,22,12.10
2017,07,12,06,23,12.10
2017,07,12,06,24,12.10
2017,07,12,06,25,12.10
2017,07,12,06,26,12.10
2017,07,12,06,27,12.10
2017,07,12,06,28,12.10
2017,07,12,06,29,12.10
2017,07,12,06,30,12.10
2017,07,12,06,31,12.10
2017,07,12,06,32,12.10
2017,07,12,06,33,12.10
2017,07,12,06,34,12.10
2017,07,12,06,35,12.10
2017,07,12,06,36,12.10
2017,07,12,06,37,12.20
2017,07,12,06,38,12.20
2017,07,12,06,39,12.20
2017,07,12,06,40,12.20
2017,07,12,06,41,12.20
2017,07,12,06,42,12.20
2017,07,12,06,43,12.20
2017,07,12,06,44,12.20
2017,07,12,06,45,12.30
2017,07,12,06,46,12.30
2017,07,12,06,47,12.30
2017,07,12,06,48,12.30
2017,07,12,06,49,12.30
2017,07,12,06,50,12.30
2017,07,12,06,51,12.40
2017,07,12,06,52,12.40
2017,07,12,06,53,12.40
2017,07,12,06,54,12.40
2017,07,12,06,55,12.40
2017,07,12,06,56,12.50
2017,07,12,06,57,12.50
2017,07,12,06,58,12.50
2017,07,12,06,59,12.50
2017,07,12,07,00,12.60
2017,07,12,07,01,12.60
2017,07,12,07,02,12.60
2017,07,12,07,03,12.70
2017,07,12,07,04,12.70
2017,07,12,07,05,12.80
2017,07,12,07,06,12.80
2017,07,12,07,07,12.80
2017,07,12,07,08,12.80
2017,07,12,07,09,12.80
2017,07,12,07,10,12.80
2017,07,12,07,11,12.80
2017,07,12,07,12,12.80
2017,07,12,07,13,12.80
2017,07,12,07,14,12.80
2017,07,12,07,15,12.80
2017,07,12,07,16,12.80
2017,07,12,07,17,12.80
2017,07,12,07,18,12.80
2017,07,12,07,19,12.80
2017,07,12,07,20,12.70
2017,07,12,07,21,12.70
2017,07,12,07,22,12.70
2017,07,12,07,23,12.70
2017,07,12,07,24,12.70
2017,07,12,07,25,12.80
2017,07,12,07,26,12.80
2017,07,12,07,27,12.80
2017,07,12,07,28,12.90
2017,07,12,07,29,12.90
2017,07,12,07,30,12.90
2017,07,12,07,31,12.90
2017,07,12,07,32,12.90
2017,07,12,07,33,13.00
2017,07,12,07,34,13.00
2017,07,12,07,35,13.00
2017,07,12,07,36,13.00
2017,07,12,07,37,13.10
2017,07,12,07,38,13.10
2017,07,12,07,39,13.10
2017,07,12,07,40,13.10
2017,07,12,07,41,13.10
2017,07,12,07,42,13.10
2017,07,12,07,43,13.10
2017,07,12,07,44,13.10
2017,07,12,07,45,13.10
2017,07,12,07,46,13.10
2017,07,12,07,47,13.00
2017,07,12,07,48,12.90
2017,07,12,07,49,12.90
2017,07,12,07,50,12.90
2017,07,12,07,51,12.90
2017,07,12,07,52,12.90
2017,07,12,07,53,12.90
2017,07,12,07,54,12.90
2017,07,12,07,55,12.90
2017,07,12,07,56,12.90
2017,07,12,07,57,12.90
2017,07,12,07,58,12.90
2017,07,12,07,59,12.90
2017,07,12,08,00,12.90
2017,07,12,08,01,13.00
2017,07,12,08,02,13.00
2017,07,12,08,03,13.00
2017,07,12,08,04,13.00
2017,07,12,08,05,13.00
2017,07,12,08,06,13.10
2017,07,12,08,07,13.10
2017,07,12,08,08,13.10
2017,07,12,08,09,13.20
2017,07,12,08,10,13.20
2017,07,12,08,11,13.20
2017,07,12,08,12,13.20
2017,07,12,08,13,13.20
2017,07,12,08,14,13.30
2017,07,12,08,15,13.30
2017,07,12,08,16,13.30
2017,07,12,08,17,13.30
2017,07,12,08,18,13.40
2017,07,12,08,19,13.40
2017,07,12,08,20,13.40
2017,07,12,08,21,13.50
2017,07,12,08,22,13.50
2017,07,12,08,23,13.50
2017,07,12,08,24,13.50
2017,07,12,08,25,13.50
2017,07,12,08,26,13.50
2017,07,12,08,27,13.60
2017,07,12,08,28,13.60
2017,07,12,08,29,13.60
2017,07,12,08,30,13.70
2017,07,12,08,31,13.70
2017,07,12,08,32,13.70
2017,07,12,08,33,13.70
2017,07,12,08,34,13.70
2017,07,12,08,35,13.70
2017,07,12,08,36,13.70
2017,07,12,08,37,13.70
2017,07,12,08,38,13.80
2017,07,12,08,39,13.80
2017,07,12,08,40,13.80
2017,07,12,08,41,13.90
2017,07,12,08,42,13.90
2017,07,12,08,43,14.00
2017,07,12,08,44,14.10
2017,07,12,08,45,14.10
2017,07,12,08,46,14.20
2017,07,12,08,47,14.20
2017,07,12,08,48,14.20
2017,07,12,08,49,14.20
2017,07,12,08,50,14.30
2017,07,12,08,51,14.30
2017,07,12,08,52,14.30
2017,07,12,08,53,14.40
2017,07,12,08,54,14.50
2017,07,12,08,55,14.50
2017,07,12,08,56,14.60
2017,07,12,08,57,14.60
2017,07,12,08,58,14.60
2017,07,12,08,59,14.60
2017,07,12,09,00,14.70
2017,07,12,09,01,14.80
2017,07,12,09,02,14.80
2017,07,12,09,03,14.90
2017,07,12,09,04,14.90
2017,07,12,09,05,15.00
2017,07,12,09,06,15.00
2017,07,12,09,07,15.00
2017,07,12,09,08,15.00
2017,07,12,09,09,15.00
2017,07,12,09,10,15.00
2017,07,12,09,11,15.00
2017,07,12,09,12,15.00
2017,07,12,09,13,15.00
2017,07,12,09,14,14.90
2017,07,12,09,15,14.80
2017,07,12,09,16,14.80
2017,07,12,09,17,14.80
2017,07,12,09,18,14.80
2017,07,12,09,19,14.70
2017,07,12,09,20,14.70
2017,07,12,09,21,14.70
2017,07,12,09,22,14.70
2017,07,12,09,23,14.70
2017,07,12,09,24,14.70
2017,07,12,09,25,14.70
2017,07,12,09,26,14.70
2017,07,12,09,27,14.60
2017,07,12,09,28,14.60
2017,07,12,09,29,14.60
2017,07,12,09,30,14.60
2017,07,12,09,31,14.60
2017,07,12,09,32,14.50
2017,07,12,09,33,14.50
2017,07,12,09,34,14.50
2017,07,12,09,35,14.50
2017,07,12,09,36,14.50
2017,07,12,09,37,14.50
2017,07,12,09,38,14.40
2017,07,12,09,39,14.40
2017,07,12,09,40,14.40
2017,07,12,09,41,14.40
2017,07,12,09,42,14.40
2017,07,12,09,43,14.40
2017,07,12,09,44,14.50
2017,07,12,09,45,14.50
2017,07,12,09,46,14.50
2017,07,12,09,47,14.60
2017,07,12,09,48,14.60
2017,07,12,09,49,14.60
2017,07,12,09,50,14.60
2017,07,12,09,51,14.60
2017,07,12,09,52,14.60
2017,07,12,09,53,14.70
2017,07,12,09,54,14.70
2017,07,12,09,55,14.70
2017,07,12,09,56,14.80
2017,07,12,09,57,14.80
2017,07,12,09,58,14.80
2017,07,12,09,59,14.90
2017,07,12,10,00,14.90
2017,07,12,10,01,14.80
2017,07,12,10,02,14.80
2017,07,12,10,03,14.80
2017,07,12,10,04,14.80
2017,07,12,10,05,14.80
2017,07,12,10,06,14.80
2017,07,12,10,07,14.80
2017,07,12,10,08,14.90
2017,07,12,10,09,14.90
2017,07,12,10,10,15.00
2017,07,12,10,11,15.00
2017,07,12,10,12,15.00
2017,07,12,10,13,15.00
2017,07,12,10,14,15.00
2017,07,12,10,15,15.00
2017,07,12,10,16,15.00
2017,07,12,10,17,15.00
2017,07,12,10,18,15.00
2017,07,12,10,19,15.00
2017,07,12,10,20,15.00
2017,07,12,10,21,15.00
2017,07,12,10,22,15.00
2017,07,12,10,23,15.00
2017,07,12,10,24,15.00
2017,07,12,10,25,15.00
2017,07,12,10,26,15.00
2017,07,12,10,27,15.00
2017,07,12,10,28,15.00
2017,07,12,10,29,15.00
2017,07,12,10,30,15.00
2017,07,12,10,31,15.00
2017,07,12,10,32,15.00
2017,07,12,10,33,15.10
2017,07,12,10,34,15.10
2017,07,12,10,35,15.10
2017,07,12,10,36,15.10
2017,07,12,10,37,15.20
2017,07,12,10,38,15.20
2017,07,12,10,39,15.20
2017,07,12,10,40,15.30
2017,07,12,10,41,15.30
2017,07,12,10,42,15.30
2017,07,12,10,43,15.30
2017,07,12,10,44,15.30
2017,07,12,10,45,15.40
2017,07,12,10,46,15.40
2017,07,12,10,47,15.50
2017,07,12,10,48,15.60
2017,07,12,10,49,15.60
2017,07,12,10,50,15.70
2017,07,12,10,51,15.70
2017,07,12,10,52,15.60
2017,07,12,10,53,15.60
2017,07,12,10,54,15.60
2017,07,12,10,55,15.60
2017,07,12,10,56,15.70
2017,07,12,10,57,15.70
2017,07,12,10,58,15.80
2017,07,12,10,59,15.80
2017,07,12,11,00,15.80
2017,07,12,11,01,15.80
2017,07,12,11,02,15.70
2017,07,12,11,03,15.80
2017,07,12,11,04,15.80
2017,07,12,11,05,15.80
2017,07,12,11,06,15.80
2017,07,12,11,07,15.80
2017,07,12,11,08,15.80
2017,07,12,11,09,15.90
2017,07,12,11,10,15.90
2017,07,12,11,11,15.90
2017,07,12,11,12,15.90
2017,07,12,11,13,16.00
2017,07,12,11,14,16.00
2017,07,12,11,15,16.00
2017,07,12,11,16,16.10
2017,07,12,11,17,16.10
2017,07,12,11,18,16.20
2017,07,12,11,19,16.30
2017,07,12,11,20,16.30
2017,07,12,11,21,16.30
2017,07,12,11,22,16.30
2017,07,12,11,23,16.30
2017,07,12,11,24,16.30
2017,07,12,11,25,16.30
2017,07,12,11,26,16.40
2017,07,12,11,27,16.30
2017,07,12,11,28,16.40
2017,07,12,11,29,16.40
2017,07,12,11,30,16.40
2017,07,12,11,31,16.50
2017,07,12,11,32,16.50
2017,07,12,11,33,16.50
2017,07,12,11,34,16.60
2017,07,12,11,35,16.60
2017,07,12,11,36,16.60
2017,07,12,11,37,16.70
2017,07,12,11,38,16.70
2017,07,12,11,39,16.80
2017,07,12,11,40,16.90
2017,07,12,11,41,16.90
2017,07,12,11,42,17.00
2017,07,12,11,43,17.00
2017,07,12,11,44,17.00
2017,07,12,11,45,17.10
2017,07,12,11,46,17.10
2017,07,12,11,47,17.20
2017,07,12,11,48,17.10
2017,07,12,11,49,17.10
2017,07,12,11,50,17.10
2017,07,12,11,51,17.20
2017,07,12,11,52,17.20
2017,07,12,11,53,17.30
2017,07,12,11,54,17.40
2017,07,12,11,55,17.40
2017,07,12,11,56,17.40
2017,07,12,11,57,17.50
2017,07,12,11,58,17.60
2017,07,12,11,59,17.80
2017,07,12,12,00,17.90
2017,07,12,12,01,18.00
2017,07,12,12,02,18.00
2017,07,12,12,03,18.00
2017,07,12,12,04,18.10
2017,07,12,12,05,18.20
2017,07,12,12,06,18.20
2017,07,12,12,07,18.20
2017,07,12,12,08,18.30
2017,07,12,12,09,18.40
2017,07,12,12,10,18.60
2017,07,12,12,11,18.80
2017,07,12,12,12,18.90
2017,07,12,12,13,19.00
2017,07,12,12,14,19.10
2017,07,12,12,15,19.20
2017,07,12,12,16,19.20
2017,07,12,12,17,19.20
2017,07,12,12,18,19.20
2017,07,12,12,19,19.30
2017,07,12,12,20,19.30
2017,07,12,12,21,19.20
2017,07,12,12,22,19.10
2017,07,12,12,23,19.10
2017,07,12,12,24,19.00
2017,07,12,12,25,19.00
2017,07,12,12,26,19.00
2017,07,12,12,27,19.10
2017,07,12,12,28,19.20
2017,07,12,12,29,19.30
2017,07,12,12,30,19.40
2017,07,12,12,31,19.50
2017,07,12,12,32,19.60
2017,07,12,12,33,19.70
2017,07,12,12,34,19.70
2017,07,12,12,35,19.70
2017,07,12,12,36,19.70
2017,07,12,12,37,19.70
2017,07,12,12,38,19.70
2017,07,12,12,39,19.70
2017,07,12,12,40,19.70
2017,07,12,12,41,19.70
2017,07,12,12,42,19.80
2017,07,12,12,43,19.90
2017,07,12,12,44,19.90
2017,07,12,12,45,19.90
2017,07,12,12,46,19.90
2017,07,12,12,47,20.00
2017,07,12,12,48,20.10
2017,07,12,12,49,20.20
2017,07,12,12,50,20.20
2017,07,12,12,51,20.10
2017,07,12,12,52,20.10
2017,07,12,12,53,20.00
2017,07,12,12,54,20.00
2017,07,12,12,55,19.90
2017,07,12,12,56,19.90
2017,07,12,12,57,19.90
2017,07,12,12,58,20.00
2017,07,12,12,59,20.20
2017,07,12,13,00,20.30
2017,07,12,13,01,20.30
2017,07,12,13,02,20.30
2017,07,12,13,03,20.30
2017,07,12,13,04,20.20
2017,07,12,13,05,20.20
2017,07,12,13,06,20.20
2017,07,12,13,07,20.20
2017,07,12,13,08,20.30
2017,07,12,13,09,20.40
2017,07,12,13,10,20.50
2017,07,12,13,11,20.70
2017,07,12,13,12,20.80
2017,07,12,13,13,20.90
2017,07,12,13,14,21.00
2017,07,12,13,15,21.10
2017,07,12,13,16,21.20
2017,07,12,13,17,21.20
2017,07,12,13,18,21.20
2017,07,12,13,19,21.30
2017,07,12,13,20,21.40
2017,07,12,13,21,21.50
2017,07,12,13,22,21.60
2017,07,12,13,23,21.80
2017,07,12,13,24,21.80
2017,07,12,13,25,21.70
2017,07,12,13,26,21.60
2017,07,12,13,27,21.60
2017,07,12,13,28,21.60
2017,07,12,13,29,21.70
2017,07,12,13,30,21.80
2017,07,12,13,31,21.80
2017,07,12,13,32,21.90
2017,07,12,13,33,21.90
2017,07,12,13,34,21.80
2017,07,12,13,35,21.70
2017,07,12,13,36,21.60
2017,07,12,13,37,21.60
2017,07,12,13,38,21.50
2017,07,12,13,39,21.40
2017,07,12,13,40,21.40
2017,07,12,13,41,21.50
2017,07,12,13,42,21.60
2017,07,12,13,43,21.70
2017,07,12,13,44,21.80
2017,07,12,13,45,21.90
2017,07,12,13,46,22.00
2017,07,12,13,47,22.00
2017,07,12,13,48,22.00
2017,07,12,13,49,21.90
2017,07,12,13,50,21.90
2017,07,12,13,51,21.90
2017,07,12,13,52,21.80
2017,07,12,13,53,21.80
2017,07,12,13,54,21.80
2017,07,12,13,55,21.80
2017,07,12,13,56,21.70
2017,07,12,13,57,21.60
2017,07,12,13,58,21.60
2017,07,12,13,59,21.60
2017,07,12,14,00,21.60
2017,07,12,14,01,21.50
2017,07,12,14,02,21.50
2017,07,12,14,03,21.40
2017,07,12,14,04,21.50
2017,07,12,14,05,21.50
2017,07,12,14,06,21.50
2017,07,12,14,07,21.40
2017,07,12,14,08,21.30
2017,07,12,14,09,21.30
2017,07,12,14,10,21.40
2017,07,12,14,11,21.50
2017,07,12,14,12,21.60
2017,07,12,14,13,21.60
2017,07,12,14,14,21.60
2017,07,12,14,15,21.50
2017,07,12,14,16,21.30
2017,07,12,14,17,21.20
2017,07,12,14,18,21.20
2017,07,12,14,19,21.20
2017,07,12,14,20,21.30
2017,07,12,14,21,21.40
2017,07,12,14,22,21.50
2017,07,12,14,23,21.50
2017,07,12,14,24,21.50
2017,07,12,14,25,21.40
2017,07,12,14,26,21.40
2017,07,12,14,27,21.40
2017,07,12,14,28,21.40
2017,07,12,14,29,21.30
2017,07,12,14,30,21.30
2017,07,12,14,31,21.30
2017,07,12,14,32,21.30
2017,07,12,14,33,21.40
2017,07,12,14,34,21.50
2017,07,12,14,35,21.60
2017,07,12,14,36,21.70
2017,07,12,14,37,21.80
2017,07,12,14,38,21.80
2017,07,12,14,39,21.80
2017,07,12,14,40,21.80
2017,07,12,14,41,21.80
2017,07,12,14,42,21.80
2017,07,12,14,43,21.80
2017,07,12,14,44,21.80
2017,07,12,14,45,21.90
2017,07,12,14,46,22.00
2017,07,12,14,47,22.10
2017,07,12,14,48,22.20
2017,07,12,14,49,22.30
2017,07,12,14,50,22.40
2017,07,12,14,51,22.40
2017,07,12,14,52,22.40
2017,07,12,14,53,22.30
2017,07,12,14,54,22.30
2017,07,12,14,55,22.30
2017,07,12,14,56,22.20
2017,07,12,14,57,22.10
2017,07,12,14,58,22.10
2017,07,12,14,59,22.00
2017,07,12,15,00,21.90
2017,07,12,15,01,21.70
2017,07,12,15,02,21.60
2017,07,12,15,03,21.50
2017,07,12,15,04,21.40
2017,07,12,15,05,21.40
2017,07,12,15,06,21.30
2017,07,12,15,07,21.30
2017,07,12,15,08,21.30
2017,07,12,15,09,21.30
2017,07,12,15,10,21.30
2017,07,12,15,11,21.30
2017,07,12,15,12,21.40
2017,07,12,15,13,21.40
2017,07,12,15,14,21.40
2017,07,12,15,15,21.40
2017,07,12,15,16,21.30
2017,07,12,15,17,21.30
2017,07,12,15,18,21.20
2017,07,12,15,19,21.20
2017,07,12,15,20,21.20
2017,07,12,15,21,21.20
2017,07,12,15,22,21.20
2017,07,12,15,23,21.30
2017,07,12,15,24,21.30
2017,07,12,15,25,21.30
2017,07,12,15,26,21.40
2017,07,12,15,27,21.40
2017,07,12,15,28,21.40
2017,07,12,15,29,21.40
2017,07,12,15,30,21.30
2017,07,12,15,31,21.20
2017,07,12,15,32,21.20
2017,07,12,15,33,21.20
2017,07,12,15,34,21.20
2017,07,12,15,35,21.20
2017,07,12,15,36,21.20
2017,07,12,15,37,21.30
2017,07,12,15,38,21.40
2017,07,12,15,39,21.40
2017,07,12,15,40,21.50
2017,07,12,15,41,21.40
2017,07,12,15,42,21.30
2017,07,12,15,43,21.30
2017,07,12,15,44,21.30
2017,07,12,15,45,21.30
2017,07,12,15,46,21.30
2017,07,12,15,47,21.30
2017,07,12,15,48,21.30
2017,07,12,15,49,21.30
2017,07,12,15,50,21.20
2017,07,12,15,51,21.20
2017,07,12,15,52,21.20
2017,07,12,15,53,21.20
2017,07,12,15,54,21.30
2017,07,12,15,55,21.30
2017,07,12,15,56,21.30
2017,07,12,15,57,21.30
2017,07,12,15,58,21.40
2017,07,12,15,59,21.50
2017,07,12,16,00,21.60
2017,07,12,16,01,21.70
2017,07,12,16,02,21.80
2017,07,12,16,03,21.80
2017,07,12,16,04,21.70
2017,07,12,16,05,21.70
2017,07,12,16,06,21.70
2017,07,12,16,07,21.70
2017,07,12,16,08,21.70
2017,07,12,16,09,21.80
2017,07,12,16,10,21.80
2017,07,12,16,11,21.70
2017,07,12,16,12,21.70
2017,07,12,16,13,21.70
2017,07,12,16,14,21.80
2017,07,12,16,15,21.80
2017,07,12,16,16,21.80
2017,07,12,16,17,21.90
2017,07,12,16,18,22.00
2017,07,12,16,19,22.10
2017,07,12,16,20,22.00
2017,07,12,16,21,22.00
2017,07,12,16,22,22.10
2017,07,12,16,23,21.80
2017,07,12,16,24,21.70
2017,07,12,16,25,21.60
2017,07,12,16,26,21.60
2017,07,12,16,27,21.60
2017,07,12,16,28,21.60
2017,07,12,16,29,21.60
2017,07,12,16,30,21.70
2017,07,12,16,31,21.70
2017,07,12,16,32,21.80
2017,07,12,16,33,21.70
2017,07,12,16,34,21.70
2017,07,12,16,35,21.60
2017,07,12,16,36,21.50
2017,07,12,16,37,21.40
2017,07,12,16,38,21.40
2017,07,12,16,39,21.40
2017,07,12,16,40,21.30
2017,07,12,16,41,21.30
2017,07,12,16,42,21.40
2017,07,12,16,43,21.40
2017,07,12,16,44,21.30
2017,07,12,16,45,21.30
2017,07,12,16,46,21.40
2017,07,12,16,47,21.40
2017,07,12,16,48,21.50
2017,07,12,16,49,21.50
2017,07,12,16,50,21.60
2017,07,12,16,51,21.60
2017,07,12,16,52,21.50
2017,07,12,16,53,21.50
2017,07,12,16,54,21.50
2017,07,12,16,55,21.50
2017,07,12,16,56,21.50
2017,07,12,16,57,21.50
2017,07,12,16,58,21.40
2017,07,12,16,59,21.30
2017,07,12,17,00,21.20
2017,07,12,17,01,21.20
2017,07,12,17,02,21.20
2017,07,12,17,03,21.20
2017,07,12,17,04,21.20
2017,07,12,17,05,21.20
2017,07,12,17,06,21.30
2017,07,12,17,07,21.40
2017,07,12,17,08,21.40
2017,07,12,17,09,21.40
2017,07,12,17,10,21.40
2017,07,12,17,11,21.40
2017,07,12,17,12,21.40
2017,07,12,17,13,21.50
2017,07,12,17,14,21.50
2017,07,12,17,15,21.50
2017,07,12,17,16,21.50
2017,07,12,17,17,21.50
2017,07,12,17,18,21.40
2017,07,12,17,19,21.40